{"data":{"norad_id":57134,"epoch":"2026-09-20T23:25:02.708256Z","epoch_age_seconds":79665,"freshness":"FRESH","line1":"1 57134U 23090AK  26263.97572579  .00003706  00000+0  14409-3 0  9990","line2":"2 57134  43.0069 240.1470 0001502 259.8258 100.2424 15.27587247180223","mean_motion":15.27587247,"eccentricity":0.0001502,"inclination_deg":43.0069,"raan_deg":240.147,"arg_perigee_deg":259.8258,"mean_anomaly_deg":100.2424,"bstar":0.00014409,"rev_number":18022,"period_min":94.266301504414,"perigee_km":481.99684910807,"apogee_km":484.05794289263,"semimajor_km":6861.1643960003,"source":"CELESTRAK","updated_at":"2026-09-21T09:00:33.564844Z"}}